Regional Weather Roundup
Issued by NWS

Home | Current Version | Previous Version | Text Only | Print | Product List | Glossary Off
Versions: 1 2 3 4 5 6 7 8 9 10 11 12 13 14 15 16 17 18 19 20 21 22 23 24 25 26 27 28 29 30 31 32 33 34 35 36 37 38 39 40 41 42 43 44 45 46 47 48 49 50

000
ASUS45 KBOI 270110
RWRID
WEATHER ROUNDUP FOR IDAHO
NATIONAL WEATHER SERVICE BOISE ID
700 PM MDT SUN APR 26 2015

NOTE: "FAIR" INDICATES FEW OR NO CLOUDS BELOW 12000 FEET
WITH NO SIGNIFICANT WEATHER AND/OR OBSTRUCTIONS TO VISIBILITY

IDZ012-014-270200-
SOUTHWEST IDAHO


CITY           SKY/WX    TMP DP  RH WIND       PRES   REMARKS
BOISE          PTSUNNY   59  20  22 NW16G23   30.13R
CALDWELL       PTSUNNY   61  21  21 NW9       30.15S
MOUNTAIN HOME  SUNNY     58  17  19 NW24      30.12R
$$

IDZ016-017-270200-
SOUTHCENTRAL IDAHO


CITY           SKY/WX    TMP DP  RH WIND       PRES   REMARKS
BURLEY         SUNNY     54  23  30 W15       30.07R
JEROME         SUNNY     55  20  25 W26G35    30.08R
TWIN FALLS     SUNNY     55  16  21 W23G31    30.10R
$$

IDZ019>023-270200-
SOUTHEAST IDAHO


CITY           SKY/WX    TMP DP  RH WIND       PRES   REMARKS
IDAHO FALLS    PTSUNNY   49  37  63 NE10      30.08R
POCATELLO      PTSUNNY   55  26  32 W8        30.07R
REXBURG        LGT RAIN  45  37  73 NE3       30.08R
$$

IDZ006-010-011-018-031-032-270200-
CENTRAL IDAHO MOUNTAINS


CITY           SKY/WX    TMP DP  RH WIND       PRES   REMARKS
MCCALL         MOSUNNY   45  20  36 N13       30.16R
HAILEY         PTSUNNY   52  28  40 SW6       30.06
STANLEY          N/A     41  18  39 N7        30.16R
SALMON         CLOUDY    46  30  53 NE8G17    30.15S
CHALLIS        CLOUDY    47  25  42 N17       30.14R
$$

IDZ002-004-006-007-026-270200-
NORTHERN IDAHO


CITY           SKY/WX    TMP DP  RH WIND       PRES   REMARKS
LEWISTON       SUNNY     63  23  21 W9        30.20R
LOWELL           N/A     55  33  43 SW5       30.23S
COEUR D`ALENE  SUNNY     55  30  38 SW10      30.21S
MULLAN PASS    MOSUNNY   36  21  54 VRB3      30.18S
$$



USA.gov is the U.S. government's official web portal to all federal, state and local government web resources and services.